TimeEET,TemperatureF,Dew PointF,Humidity,Sea Level PressureIn,VisibilityMPH,Wind Direction,Wind SpeedMPH,Gust SpeedMPH,PrecipitationIn,Events,Conditions,WindDirDegrees,DateUTC
12:20 AM,30.2,30.2,100,30.21,-9999.0,SE,4.6,-,N/A,,Clear,130,2012-11-01 22:20:00
12:50 AM,30.2,30.2,100,30.24,-9999.0,WSW,3.5,-,N/A,,Clear,250,2012-11-01 22:50:00
1:20 AM,30.2,30.2,100,30.21,-9999.0,WNW,4.6,-,N/A,,Clear,290,2012-11-01 23:20:00
1:50 AM,28.4,28.4,100,30.21,-9999.0,Calm,Calm,-,N/A,,Clear,0,2012-11-01 23:50:00
2:00 AM,29,29,99,,12,Calm,Calm,,,,,,2012-11-02 00:00:00
2:20 AM,28.4,28.4,100,30.21,-9999.0,Calm,Calm,-,N/A,,Clear,0,2012-11-02 00:20:00
2:50 AM,30.2,30.2,100,30.21,-9999.0,South,3.5,-,N/A,,Clear,170,2012-11-02 00:50:00
3:20 AM,28.4,28.4,100,30.21,-9999.0,Calm,Calm,-,N/A,,Clear,0,2012-11-02 01:20:00
3:50 AM,28.4,28.4,100,30.21,-9999.0,Calm,Calm,-,N/A,,Clear,0,2012-11-02 01:50:00
4:20 AM,26.6,26.6,100,30.21,-9999.0,NW,2.3,-,N/A,,Clear,310,2012-11-02 02:20:00
4:50 AM,26.6,24.8,93,30.21,-9999.0,Variable,2.3,-,N/A,,Clear,0,2012-11-02 02:50:00
5:20 AM,26.6,26.6,100,30.21,0.5,Variable,2.3,-,N/A,Fog,Light Freezing Fog,0,2012-11-02 03:20:00
5:50 AM,24.8,24.8,100,30.21,0.7,Calm,Calm,-,N/A,,Mist,0,2012-11-02 03:50:00
6:20 AM,24.8,24.8,100,30.24,0.7,Calm,Calm,-,N/A,,Mist,0,2012-11-02 04:20:00
6:50 AM,28.4,28.4,100,30.24,3.7,Variable,1.2,-,N/A,,Unknown,0,2012-11-02 04:50:00
7:20 AM,32.0,32.0,100,30.24,3.7,Variable,2.3,-,N/A,,Unknown,0,2012-11-02 05:20:00
7:50 AM,35.6,33.8,93,30.24,4.3,Calm,Calm,-,N/A,,Unknown,0,2012-11-02 05:50:00
8:00 AM,35,34,94,,4,Calm,Calm,,,,Mist,,2012-11-02 06:00:00
8:20 AM,37.4,35.6,93,30.24,5.0,Variable,2.3,-,N/A,,Unknown,0,2012-11-02 06:20:00
8:50 AM,42.8,37.4,81,30.24,-9999.0,Variable,1.2,-,N/A,,Clear,0,2012-11-02 06:50:00
9:20 AM,44.6,37.4,76,30.24,6.2,Variable,1.2,-,N/A,,Scattered Clouds,0,2012-11-02 07:20:00
9:50 AM,48.2,37.4,66,30.24,6.2,Variable,1.2,-,N/A,,Scattered Clouds,0,2012-11-02 07:50:00
10:20 AM,48.2,37.4,66,30.24,6.2,NW,2.3,-,N/A,,Scattered Clouds,310,2012-11-02 08:20:00
10:50 AM,50.0,37.4,62,30.21,6.2,Variable,1.2,-,N/A,,Scattered Clouds,0,2012-11-02 08:50:00
11:20 AM,53.6,37.4,54,30.18,6.2,Variable,3.5,-,N/A,,Scattered Clouds,0,2012-11-02 09:20:00
11:50 AM,55.4,35.6,47,30.18,6.2,NW,4.6,-,N/A,,Scattered Clouds,320,2012-11-02 09:50:00
12:20 PM,55.4,37.4,51,30.18,6.2,West,4.6,-,N/A,,Scattered Clouds,280,2012-11-02 10:20:00
12:50 PM,55.4,37.4,51,30.15,6.2,West,4.6,-,N/A,,Scattered Clouds,270,2012-11-02 10:50:00
1:20 PM,57.2,33.8,41,30.15,6.2,West,8.1,-,N/A,,Scattered Clouds,270,2012-11-02 11:20:00
1:50 PM,57.2,33.8,41,30.15,6.2,West,9.2,-,N/A,,Scattered Clouds,270,2012-11-02 11:50:00
2:00 PM,57,34,30,,12,West,9.2,,,,Scattered Clouds,270,2012-11-02 12:00:00
2:20 PM,55.4,35.6,47,30.15,6.2,West,9.2,-,N/A,,Scattered Clouds,260,2012-11-02 12:20:00
2:50 PM,55.4,35.6,47,30.15,6.2,West,9.2,-,N/A,,Mostly Cloudy,270,2012-11-02 12:50:00
3:20 PM,55.4,37.4,51,30.15,6.2,West,8.1,-,N/A,,Mostly Cloudy,280,2012-11-02 13:20:00
3:50 PM,53.6,35.6,51,30.15,6.2,West,8.1,-,N/A,,Mostly Cloudy,280,2012-11-02 13:50:00
4:20 PM,51.8,37.4,58,30.15,6.2,West,5.8,-,N/A,,Mostly Cloudy,270,2012-11-02 14:20:00
4:50 PM,50.0,37.4,62,30.15,6.2,West,9.2,-,N/A,,Mostly Cloudy,270,2012-11-02 14:50:00
5:20 PM,50.0,37.4,62,30.15,6.2,West,8.1,-,N/A,,Mostly Cloudy,280,2012-11-02 15:20:00
5:50 PM,48.2,37.4,66,30.15,6.2,SSW,4.6,-,N/A,,Mostly Cloudy,210,2012-11-02 15:50:00
6:20 PM,48.2,37.4,66,30.15,6.2,NW,2.3,-,N/A,,Scattered Clouds,310,2012-11-02 16:20:00
6:50 PM,48.2,37.4,66,30.15,6.2,WNW,3.5,-,N/A,,Scattered Clouds,300,2012-11-02 16:50:00
7:20 PM,48.2,39.2,71,30.15,6.2,Variable,1.2,-,N/A,,Scattered Clouds,0,2012-11-02 17:20:00
7:50 PM,46.4,39.2,76,30.18,6.2,Variable,2.3,-,N/A,,Scattered Clouds,0,2012-11-02 17:50:00
8:00 PM,46,39,69,,12,SE,2.3,,,,Partly Cloudy,140,2012-11-02 18:00:00
8:20 PM,46.4,37.4,71,30.18,6.2,East,3.5,-,N/A,,Partly Cloudy,80,2012-11-02 18:20:00
8:50 PM,44.6,39.2,81,30.18,6.2,Variable,2.3,-,N/A,,Scattered Clouds,0,2012-11-02 18:50:00
9:20 PM,46.4,41.0,81,30.18,6.2,SE,3.5,-,N/A,Rain,Light Rain Showers,130,2012-11-02 19:20:00
9:50 PM,46.4,41.0,81,30.18,6.2,Variable,1.2,-,N/A,,Partly Cloudy,0,2012-11-02 19:50:00
10:20 PM,46.4,41.0,81,30.18,6.2,NW,4.6,-,N/A,,Partly Cloudy,320,2012-11-02 20:20:00
10:50 PM,44.6,41.0,87,30.18,6.2,North,5.8,-,N/A,,Partly Cloudy,10,2012-11-02 20:50:00
11:20 PM,44.6,41.0,87,30.18,6.2,NE,5.8,-,N/A,,Partly Cloudy,40,2012-11-02 21:20:00
11:50 PM,42.8,39.2,87,30.18,6.2,NNE,2.3,-,N/A,,Partly Cloudy,30,2012-11-02 21:50:00